W5HRH Weather Reports


Display with metric or nautical units.
time (UTC)temp
F
wind
direction
speed
MPH
gust
MPH
rain 1hr
in
rain 24hr
in
rain mn
in
humidity
%
barometer
mb
20260904162543 86 91 2.0 8.0 0.00 0.27 0.01 84 1016.5
20260904162043 86 74 1.0 8.0 0.00 0.27 0.01 84 1016.4
20260904161542 86 64 3.0 8.0 0.00 0.27 0.01 84 1016.4
20260904161041 86 128 0.0 11.0 0.00 0.27 0.01 84 1016.4
20260904160544 86 83 4.0 11.0 0.00 0.27 0.01 83 1016.3
20260904160041 87 135 4.0 10.0 0.00 0.27 0.01 82 1016.3
20260904155543 87 58 4.0 9.0 0.00 0.27 0.01 81 1016.2
20260904155041 88 112 3.0 9.0 0.00 0.27 0.01 79 1016.5
20260904154540 89 67 3.0 8.0 0.00 0.27 0.01 78 1016.4
20260904154041 90 86 2.0 6.0 0.00 0.27 0.01 76 1016.3
20260904153539 90 109 1.0 4.0 0.00 0.27 0.01 75 1016.1
20260904153038 90 120 0.0 6.0 0.00 0.27 0.01 76 1016.1
20260904152536 89 127 2.0 6.0 0.00 0.27 0.01 75 1016.1
20260904152036 89 172 2.0 6.0 0.00 0.27 0.01 76 1016.0
20260904151534 89 89 1.0 6.0 0.00 0.27 0.01 78 1016.2
20260904151037 89 121 1.0 5.0 0.00 0.27 0.01 79 1015.9
20260904150533 88 141 2.0 5.0 0.00 0.27 0.01 80 1016.1
20260904150037 87 144 1.0 7.0 0.00 0.27 0.01 80 1016.0
20260904145529 87 116 1.0 7.0 0.00 0.27 0.01 82 1016.0
20260904145029 87 200 2.0 7.0 0.00 0.27 0.01 83 1016.0
20260904144527 87 134 3.0 6.0 0.00 0.27 0.01 84 1016.1
20260904144029 86 90 0.0 4.0 0.00 0.27 0.01 85 1016.1
20260904143526 86 135 2.0 4.0 0.00 0.27 0.01 86 1016.0
20260904143025 85 128 0.0 4.0 0.00 0.27 0.01 88 1016.0
20260904142522 85 116 1.0 4.0 0.00 0.27 0.01 89 1016.0
20260904142021 84 133 0.0 1.0 0.00 0.27 0.01 90 1015.9
20260904141520 84 136 0.0 4.0 0.00 0.27 0.01 91 1015.9
20260904141018 83 130 1.0 4.0 0.00 0.27 0.01 91 1016.0
20260904140517 83 131 0.0 2.0 0.00 0.27 0.01 94 1015.9
20260904140017 82 134 0.0 3.0 0.00 0.27 0.01 94 1016.0
20260904135516 82 134 0.0 3.0 0.00 0.27 0.01 94 1015.9
20260904135016 82 133 1.0 2.0 0.00 0.27 0.01 95 1015.9
20260904134517 82 133 0.0 2.0 0.00 0.27 0.01 96 1016.0
20260904134013 81 136 0.0 2.0 0.00 0.27 0.01 96 1015.9
20260904133516 81 136 0.0 2.0 0.00 0.27 0.01 96 1015.9
20260904133012 80 137 0.0 2.0 0.00 0.27 0.01 96 1015.9
20260904132512 80 138 0.0 1.0 0.00 0.27 0.01 96 1015.8
20260904132012 80 138 0.0 1.0 0.00 0.27 0.01 96 1015.8
20260904131510 80 138 0.0 2.0 0.00 0.27 0.01 96 1015.8
20260904131010 80 157 0.0 2.0 0.00 0.27 0.01 96 1015.7
20260904130514 80 157 0.0 0.0 0.00 0.27 0.01 96 1015.8
20260904130009 80 157 0.0 0.0 0.00 0.27 0.01 96 1015.7
20260904125509 80 157 0.0 0.0 0.00 0.27 0.01 96 1015.5
20260904125008 80 157 0.0 0.0 0.00 0.27 0.01 96 1015.5
20260904124507 80 157 0.0 0.0 0.00 0.27 0.01 96 1015.3
20260904124008 80 157 0.0 0.0 0.00 0.27 0.01 96 1015.3
20260904123508 79 157 0.0 0.0 0.00 0.27 0.01 96 1015.2
20260904123005 79 157 0.0 0.0 0.00 0.27 0.01 96 1015.2
20260904122505 79 157 0.0 0.0 0.00 0.27 0.01 95 1015.1
20260904122004 79 157 0.0 0.0 0.00 0.27 0.01 95 1015.1
20260904121503 79 157 0.0 0.0 0.00 0.27 0.01 95 1014.9
20260904121003 79 157 0.0 0.0 0.00 0.27 0.01 95 1014.8
20260904120502 79 157 0.0 0.0 0.00 0.27 0.01 95 1014.8
20260904120002 79 157 0.0 0.0 0.00 0.27 0.01 95 1014.8
20260904115502 79 157 0.0 0.0 0.00 0.27 0.01 95 1014.8
20260904115002 79 157 0.0 0.0 0.00 0.27 0.01 95 1014.8
20260904114503 79 157 0.0 0.0 0.00 0.27 0.01 95 1014.8
20260904114001 79 157 0.0 0.0 0.00 0.27 0.01 95 1014.9
20260904113501 79 157 0.0 0.0 0.00 0.27 0.01 95 1014.8
20260904113101 79 157 0.0 0.0 0.00 0.27 0.01 95 1014.8
20260904112600 79 157 0.0 0.0 0.00 0.27 0.01 95 1014.9
20260904112058 79 157 0.0 1.0 0.00 0.27 0.01 95 1014.8
20260904111600 79 157 0.0 1.0 0.00 0.27 0.01 95 1015.0
20260904111057 79 157 0.0 0.0 0.00 0.27 0.01 95 1014.9
20260904110556 80 157 0.0 0.0 0.00 0.27 0.01 95 1014.8
20260904110056 80 157 0.0 1.0 0.01 0.27 0.01 95 1014.7
20260904105557 80 157 0.0 1.0 0.01 0.27 0.01 95 1014.7
20260904105053 80 159 0.0 1.0 0.01 0.27 0.01 95 1014.7
20260904104602 80 159 0.0 2.0 0.01 0.27 0.01 94 1014.7
20260904104052 80 161 0.0 2.0 0.01 0.27 0.01 94 1014.8
20260904103550 80 169 0.0 0.0 0.01 0.27 0.01 94 1014.6
20260904103102 80 169 0.0 0.0 0.01 0.27 0.01 94 1014.7
20260904102550 80 169 0.0 0.0 0.01 0.27 0.01 94 1014.7
20260904102050 80 169 0.0 0.0 0.01 0.27 0.01 94 1014.7
20260904101549 80 169 0.0 0.0 0.01 0.27 0.01 94 1014.6
20260904101049 80 169 0.0 0.0 0.01 0.27 0.01 94 1014.5
20260904100549 80 169 0.0 0.0 0.00 0.26 0.00 93 1014.4
20260904100048 80 169 0.0 0.0 0.00 0.26 0.00 93 1014.5
20260904095549 80 169 0.0 0.0 0.00 0.26 0.00 93 1014.5
20260904095049 80 169 0.0 0.0 0.00 0.26 0.00 93 1014.5
20260904094548 80 169 0.0 0.0 0.00 0.26 0.00 93 1014.4
20260904094047 80 169 0.0 0.0 0.00 0.26 0.00 92 1014.4
20260904093547 80 169 0.0 0.0 0.00 0.26 0.00 92 1014.5
20260904093046 80 169 0.0 1.0 0.00 0.26 0.00 92 1014.4
20260904092548 80 169 0.0 1.0 0.00 0.26 0.00 92 1014.4
20260904092050 80 169 0.0 0.0 0.00 0.26 0.00 92 1014.4
20260904091558 80 169 0.0 0.0 0.00 0.26 0.00 92 1014.4
20260904091048 80 169 0.0 1.0 0.00 0.26 0.00 92 1014.4
20260904090546 80 169 0.0 1.0 0.00 0.26 0.00 92 1014.4
20260904090045 80 169 0.0 1.0 0.00 0.26 0.00 92 1014.4
20260904085545 80 169 0.0 0.0 0.00 0.26 0.00 92 1014.4
20260904085047 80 169 0.0 0.0 0.00 0.26 0.00 91 1014.4
20260904084544 81 169 0.0 0.0 0.00 0.26 0.00 91 1014.4
20260904084044 81 169 0.0 1.0 0.00 0.26 0.00 91 1014.4
20260904083543 81 169 0.0 1.0 0.00 0.26 0.00 91 1014.4
20260904083103 81 169 0.0 0.0 0.00 0.26 0.00 91 1014.5
20260904082543 81 169 0.0 0.0 0.00 0.26 0.00 91 1014.4
20260904082048 81 169 0.0 0.0 0.00 0.26 0.00 91 1014.4
20260904081542 81 169 0.0 0.0 0.00 0.26 0.00 91 1014.5
20260904081042 81 169 0.0 0.0 0.00 0.26 0.00 91 1014.4
20260904080542 81 169 0.0 1.0 0.00 0.26 0.00 91 1014.4
20260904080042 81 169 0.0 1.0 0.00 0.26 0.00 91 1014.5
20260904075542 81 168 0.0 0.0 0.00 0.26 0.00 91 1014.5
20260904075044 81 168 0.0 2.0 0.00 0.26 0.00 91 1014.5
20260904074559 81 168 0.0 2.0 0.00 0.26 0.00 91 1014.4
20260904074041 81 170 0.0 1.0 0.00 0.26 0.00 90 1014.5
20260904073540 81 170 0.0 2.0 0.00 0.26 0.00 90 1014.6
20260904073039 81 169 0.0 2.0 0.00 0.26 0.00 90 1014.5
20260904072539 81 169 0.0 3.0 0.00 0.26 0.00 90 1014.7
20260904072039 81 169 0.0 3.0 0.00 0.26 0.00 90 1014.7
20260904071539 81 171 0.0 4.0 0.00 0.26 0.00 91 1014.6
20260904071038 81 171 1.0 4.0 0.00 0.26 0.00 91 1014.7
20260904070538 81 165 0.0 3.0 0.00 0.26 0.00 91 1014.7
20260904070038 81 165 0.0 4.0 0.00 0.26 0.00 91 1014.7
20260904065538 81 165 0.0 3.0 0.00 0.26 0.00 91 1014.8
20260904065038 81 164 0.0 1.0 0.00 0.26 0.00 91 1014.8
20260904064538 81 164 0.0 1.0 0.00 0.26 0.00 91 1014.8
20260904064037 81 164 0.0 1.0 0.00 0.26 0.00 91 1014.9
20260904063537 81 164 0.0 2.0 0.00 0.26 0.00 91 1015.0
20260904063040 81 164 0.0 2.0 0.00 0.26 0.00 91 1014.9
20260904062535 81 165 0.0 0.0 0.00 0.26 0.00 91 1014.9
20260904062036 81 161 0.0 2.0 0.00 0.26 0.00 91 1014.9
20260904061540 81 167 0.0 5.0 0.00 0.26 0.00 91 1014.9
20260904061036 81 158 0.0 5.0 0.00 0.26 0.00 91 1014.8
20260904060536 81 120 1.0 4.0 0.00 0.26 0.00 91 1014.8
20260904060035 81 153 0.0 4.0 0.00 0.26 0.00 91 1014.9
20260904055535 81 169 0.0 3.0 0.00 0.26 0.00 91 1014.8
20260904055036 81 170 0.0 3.0 0.00 0.26 0.00 91 1014.9
20260904054536 81 170 0.0 5.0 0.00 0.26 0.00 91 1014.9
20260904054034 81 157 0.0 3.0 0.01 0.26 0.00 91 1014.8
20260904053534 81 159 0.0 2.0 0.01 0.26 0.00 91 1014.9
20260904053037 81 148 0.0 3.0 0.01 0.26 0.00 91 1014.9
20260904052533 81 148 0.0 3.0 0.01 0.26 0.00 91 1014.7
20260904052033 81 156 1.0 4.0 0.01 0.26 0.00 91 1014.7
20260904051533 81 153 1.0 4.0 0.01 0.26 0.00 91 1014.8
20260904051031 81 153 0.0 5.0 0.01 0.26 0.00 91 1014.9
20260904050533 81 152 0.0 5.0 0.01 0.26 0.00 91 1014.8
20260904050029 81 151 0.0 3.0 0.01 0.26 0.00 91 1014.9
20260904045531 81 143 0.0 2.0 0.01 0.26 0.26 91 1014.7
20260904045031 81 143 0.0 3.0 0.01 0.26 0.26 91 1014.7
20260904044529 81 142 0.0 3.0 0.01 0.26 0.26 91 1014.7
20260904044028 81 162 0.0 2.0 0.00 0.25 0.25 91 1014.6
20260904043533 81 161 0.0 4.0 0.00 0.25 0.25 91 1014.7
20260904043028 81 157 0.0 3.0 0.00 0.25 0.25 90 1014.7
20260904042528 81 160 1.0 5.0 0.00 0.25 0.25 90 1014.8
20260904042028 81 160 1.0 5.0 0.00 0.25 0.25 90 1014.9
20260904041533 81 167 0.0 2.0 0.00 0.25 0.25 90 1014.9
20260904041031 82 167 0.0 3.0 0.00 0.25 0.25 90 1014.9
20260904040528 82 164 0.0 2.0 0.00 0.25 0.25 90 1014.9
20260904040027 82 161 0.0 3.0 0.00 0.25 0.25 90 1014.8
20260904035527 82 137 0.0 3.0 0.00 0.25 0.25 90 1014.9
20260904035026 82 137 0.0 3.0 0.00 0.25 0.25 90 1014.9
20260904034526 82 136 0.0 3.0 0.00 0.25 0.25 90 1014.9
20260904034027 82 134 0.0 3.0 0.00 0.25 0.25 90 1015.0
20260904033527 82 165 0.0 4.0 0.00 0.25 0.25 90 1015.0
20260904033026 82 166 2.0 4.0 0.00 0.25 0.25 90 1015.0
20260904032525 82 154 1.0 3.0 0.00 0.25 0.25 90 1015.0
20260904032025 82 163 0.0 5.0 0.00 0.25 0.25 90 1014.9
20260904031526 82 170 1.0 5.0 0.00 0.25 0.25 90 1014.9
20260904031025 81 157 2.0 5.0 0.00 0.25 0.25 90 1014.9
20260904030525 82 168 0.0 5.0 0.00 0.25 0.25 90 1014.8
20260904030025 81 184 1.0 5.0 0.00 0.25 0.25 90 1014.8
20260904025525 81 147 0.0 4.0 0.00 0.25 0.25 90 1015.0
20260904025025 81 158 1.0 3.0 0.00 0.25 0.25 90 1014.9
20260904024525 81 159 0.0 2.0 0.00 0.25 0.25 90 1014.9
20260904024025 81 159 0.0 4.0 0.00 0.25 0.25 91 1014.8
20260904023525 81 161 0.0 4.0 0.00 0.25 0.25 91 1014.6
20260904023025 81 155 0.0 3.0 0.00 0.25 0.25 91 1014.6
20260904022524 81 157 0.0 3.0 0.00 0.25 0.25 91 1014.5
20260904022023 81 154 0.0 2.0 0.00 0.25 0.25 91 1014.4
20260904021534 81 153 0.0 3.0 0.00 0.25 0.25 91 1014.3
20260904021026 81 134 0.0 1.0 0.00 0.25 0.25 91 1014.4
20260904020528 81 134 0.0 1.0 0.00 0.25 0.25 91 1014.3
20260904020023 81 134 0.0 1.0 0.00 0.25 0.25 91 1014.3
20260904015523 81 134 0.0 1.0 0.00 0.25 0.25 91 1014.3
20260904015027 81 134 0.0 2.0 0.00 0.25 0.25 91 1014.2
20260904014525 81 142 0.0 2.0 0.00 0.25 0.25 90 1014.1
20260904014023 81 140 0.0 2.0 0.00 0.25 0.25 90 1014.1
20260904013522 81 140 0.0 2.0 0.00 0.25 0.25 90 1014.0
20260904013024 81 139 0.0 1.0 0.00 0.25 0.25 90 1014.0
20260904012522 81 139 0.0 2.0 0.00 0.25 0.25 90 1014.1
20260904012026 81 139 0.0 3.0 0.00 0.25 0.25 90 1014.0
20260904011521 80 139 0.0 3.0 0.01 0.25 0.25 90 1013.9
20260904011021 80 138 0.0 2.0 0.01 0.25 0.25 90 1013.9
20260904010522 80 138 0.0 0.0 0.01 0.25 0.25 90 1013.8
20260904010021 80 138 0.0 0.0 0.01 0.25 0.25 90 1013.9
20260904005520 80 138 0.0 0.0 0.01 0.25 0.25 90 1013.9
20260904005022 80 138 0.0 0.0 0.01 0.25 0.25 90 1014.0
20260904004520 81 138 0.0 0.0 0.01 0.25 0.25 90 1013.9
20260904004020 81 138 0.0 0.0 0.01 0.25 0.25 90 1013.7
20260904003519 81 138 0.0 0.0 0.01 0.25 0.25 90 1013.8
20260904003019 81 138 0.0 0.0 0.01 0.25 0.25 90 1013.7
20260904002519 81 138 0.0 0.0 0.01 0.25 0.25 90 1013.8
20260904002019 81 138 0.0 0.0 0.01 0.25 0.25 90 1013.9
20260904001522 81 138 0.0 0.0 0.00 0.24 0.24 90 1013.9
20260904001018 80 138 0.0 0.0 0.00 0.24 0.24 90 1013.9
20260904000520 80 138 0.0 0.0 0.00 0.24 0.24 90 1013.9
20260904000018 80 141 0.0 0.0 0.00 0.24 0.24 90 1014.0
20260903235518 80 141 0.0 0.0 0.00 0.24 0.24 90 1013.9
20260903235018 80 141 0.0 0.0 0.00 0.24 0.24 91 1013.9
20260903234517 80 142 0.0 0.0 0.00 0.24 0.24 91 1013.9
20260903234017 80 151 0.0 0.0 0.00 0.24 0.24 91 1013.8
20260903233517 80 151 0.0 0.0 0.00 0.24 0.24 91 1013.9
20260903233016 80 152 0.0 0.0 0.00 0.24 0.24 92 1013.9
20260903232515 80 152 0.0 0.0 0.00 0.24 0.24 91 1014.1
20260903232014 80 152 0.0 0.0 0.00 0.24 0.24 91 1014.0
20260903231515 80 152 0.0 0.0 0.00 0.24 0.24 92 1014.1
20260903231014 80 152 0.0 0.0 0.00 0.24 0.24 92 1014.2
20260903230514 79 152 0.0 0.0 0.00 0.24 0.24 92 1014.1
20260903230015 79 152 0.0 0.0 0.00 0.24 0.24 92 1014.1
20260903225516 79 152 0.0 0.0 0.00 0.24 0.24 93 1014.2
20260903225015 79 152 0.0 0.0 0.00 0.24 0.24 93 1014.1
20260903224513 79 152 0.0 0.0 0.00 0.24 0.24 93 1014.1
20260903224016 79 152 0.0 0.0 0.00 0.24 0.24 93 1014.2
20260903223513 79 156 0.0 0.0 0.00 0.24 0.24 94 1014.4
20260903223013 79 156 0.0 0.0 0.00 0.24 0.24 94 1014.2
20260903222515 79 159 0.0 0.0 0.00 0.24 0.24 94 1014.2
20260903222015 79 161 0.0 0.0 0.00 0.24 0.24 94 1014.2
20260903221515 79 161 0.0 0.0 0.00 0.24 0.24 94 1014.2
20260903221011 79 161 0.0 0.0 0.00 0.24 0.24 94 1014.3
20260903220515 78 161 0.0 1.0 0.00 0.24 0.24 94 1014.2
20260903220012 78 161 0.0 1.0 0.00 0.24 0.24 94 1014.4
20260903215510 78 161 0.0 2.0 0.01 0.24 0.24 94 1014.4
20260903215009 78 161 0.0 2.0 0.01 0.24 0.24 93 1014.4
20260903214512 78 163 0.0 1.0 0.01 0.24 0.24 94 1014.8
20260903214011 78 168 0.0 1.0 0.01 0.24 0.24 94 1015.1
20260903213511 78 168 0.0 1.0 0.01 0.24 0.24 93 1015.2
20260903213009 78 168 0.0 6.0 0.01 0.24 0.24 93 1015.0
20260903212508 78 170 1.0 6.0 0.01 0.24 0.24 93 1015.1
20260903212009 78 111 1.0 6.0 0.01 0.24 0.24 93 1014.9
20260903211507 78 54 1.0 5.0 0.01 0.24 0.24 93 1015.0
20260903211007 78 22 0.0 5.0 0.01 0.24 0.24 94 1015.1
20260903210507 78 347 2.0 5.0 0.01 0.24 0.24 93 1015.2
20260903210008 78 41 0.0 4.0 0.01 0.24 0.24 94 1015.2
20260903205508 78 76 1.0 5.0 0.01 0.23 0.23 93 1015.2
20260903205007 78 69 1.0 4.0 0.01 0.23 0.23 93 1015.3
20260903204507 78 66 1.0 4.0 0.01 0.23 0.23 94 1015.4
20260903204007 78 61 1.0 4.0 0.01 0.23 0.23 94 1015.4
20260903203506 78 20 1.0 5.0 0.01 0.23 0.23 93 1015.3
20260903203006 78 360 1.0 5.0 0.01 0.23 0.23 93 1015.1
20260903202506 78 355 0.0 3.0 0.02 0.23 0.23 93 1015.0
20260903202007 78 355 1.0 3.0 0.02 0.23 0.23 94 1014.9
20260903201508 78 350 0.0 2.0 0.02 0.23 0.23 94 1015.2
20260903201005 78 340 0.0 3.0 0.02 0.23 0.23 94 1015.3
20260903200508 78 340 0.0 5.0 0.03 0.23 0.23 94 1015.1
20260903200006 78 331 1.0 5.0 0.03 0.23 0.23 94 1014.9
20260903195505 78 346 0.0 3.0 0.02 0.22 0.22 94 1015.0
20260903195005 78 346 0.0 3.0 0.02 0.22 0.22 94 1015.1
20260903194506 78 33 0.0 3.0 0.03 0.22 0.22 94 1015.3
20260903194005 78 34 0.0 2.0 0.03 0.22 0.22 94 1015.2
20260903193506 78 34 0.0 2.0 0.04 0.22 0.22 94 1015.3
20260903193005 78 36 0.0 3.0 0.04 0.22 0.22 94 1015.2
20260903192504 78 34 1.0 6.0 0.04 0.21 0.21 94 1015.3
20260903192004 78 28 0.0 6.0 0.04 0.21 0.21 94 1015.4
20260903191504 78 360 1.0 6.0 0.05 0.21 0.21 94 1015.5
20260903191004 78 11 0.0 2.0 0.06 0.21 0.21 94 1015.5
20260903190504 77 31 0.0 2.0 0.05 0.20 0.20 94 1015.5
20260903190004 77 33 0.0 2.0 0.06 0.20 0.20 94 1015.3
20260903185504 77 34 0.0 2.0 0.07 0.20 0.20 93 1015.2
20260903185003 76 32 0.0 4.0 0.07 0.19 0.19 93 1015.4
20260903184503 76 28 1.0 4.0 0.08 0.19 0.19 93 1015.7
20260903184002 76 360 1.0 4.0 0.09 0.19 0.19 93 1015.8
20260903183502 76 42 1.0 4.0 0.09 0.18 0.18 93 1015.7
20260903183003 76 40 1.0 6.0 0.11 0.18 0.18 93 1015.8
20260903182501 76 39 2.0 6.0 0.12 0.17 0.17 92 1016.2
20260903182000 75 86 0.0 3.0 0.15 0.17 0.17 92 1016.3
20260903181500 75 164 0.0 7.0 0.16 0.16 0.16 92 1016.2
20260903181100 75 164 3.0 7.0 0.16 0.16 0.16 91 1015.7
20260903180559 76 147 2.0 8.0 0.15 0.15 0.15 92 1015.8
20260903180100 75 82 1.0 9.0 0.14 0.14 0.14 90 1015.9
20260903175557 76 167 2.0 9.0 0.13 0.13 0.13 90 1016.0
20260903175056 76 115 2.0 8.0 0.12 0.12 0.12 90 1015.8
20260903174556 77 97 1.0 8.0 0.11 0.11 0.11 90 1016.1
20260903174054 77 170 3.0 9.0 0.10 0.10 0.10 89 1016.3
20260903173554 79 110 1.0 7.0 0.09 0.09 0.09 88 1016.4
20260903172549 82 57 2.0 14.0 0.05 0.05 0.05 86 1016.3
20260903172048 84 138 6.0 11.0 0.03 0.03 0.03 82 1016.3
20260903171551 88 194 5.0 12.0 0.00 0.00 0.00 72 1015.9
20260903171048 90 146 1.0 6.0 0.00 0.00 0.00 75 1015.7
20260903170547 90 355 0.0 2.0 0.00 0.00 0.00 74 1015.8
20260903170048 90 346 0.0 5.0 0.00 0.00 0.00 75 1015.6
20260903165547 89 346 1.0 5.0 0.00 0.00 0.00 74 1015.6
20260903165050 90 105 0.0 1.0 0.00 0.00 0.00 75 1015.8
20260903164547 90 106 0.0 2.0 0.00 0.00 0.00 75 1016.0
20260903164046 90 103 1.0 3.0 0.00 0.00 0.00 76 1016.0
20260903163544 89 163 1.0 4.0 0.00 0.00 0.00 77 1016.1
20260903163043 89 163 1.0 4.0 0.00 0.00 0.00 77 1016.0